Creek Data

    Home     View Charts     View Raw Data     Messages

ID Distance Battery Voltage Battery Current Internal Temp Internal Humidity External Temp Solar Input rssi snr Time Stamp Record
65911 15.0 3.99 -5 52 50 53 0 -75 8 02/10/2026 08:00 PM 48714
65910 15.0 3.99 -5 51 51 53 0 -76 7 02/10/2026 07:45 PM 48713
65909 15.0 3.89 -5 51 51 53 0 -76 8 02/10/2026 07:30 PM 48712
65908 15.1 3.89 -5 51 51 52 0 -75 9 02/10/2026 07:15 PM 48711
65907 15.1 3.99 -5 51 51 52 0 -75 8 02/10/2026 07:00 PM 48710
65906 15.0 3.88 -5 51 51 52 0 -75 8 02/10/2026 06:45 PM 48709
65905 15.0 3.93 -5 52 51 53 0 -75 8 02/10/2026 06:30 PM 48708
65904 15.0 3.89 -5 52 51 53 0 -75 8 02/10/2026 06:15 PM 48707
65903 15.0 4.00 -5 52 51 52 0 -75 8 02/10/2026 06:00 PM 48706
65902 15.0 4.00 -5 52 51 52 0.7 -75 8 02/10/2026 05:45 PM 48705
65901 15.0 3.93 -10 52 51 53 4.2 -75 8 02/10/2026 05:30 PM 48704
65900 15.0 4.04 9 53 51 53 4.5 -75 8 02/10/2026 05:15 PM 48703
65899 15.0 4.02 0 53 51 53 4.5 -75 8 02/10/2026 05:00 PM 48702
65898 15.0 4.02 0 53 51 53 4.5 -75 8 02/10/2026 04:45 PM 48701
65897 15.0 3.96 0 53 51 53 4.5 -75 8 02/10/2026 04:30 PM 48700
65896 15.0 3.96 0 53 51 53 4.5 -75 8 02/10/2026 04:15 PM 48699
65895 15.1 4.06 0 54 51 54 4.5 -76 8 02/10/2026 04:00 PM 48698
65894 15.0 4.06 7 54 51 54 4.5 -75 8 02/10/2026 03:45 PM 48697
65893 15.1 4.06 10 54 52 53 4.5 -75 8 02/10/2026 03:30 PM 48696
65892 15.1 3.98 13 55 51 54 4.5 -74 8 02/10/2026 03:15 PM 48695
65891 15.1 4.05 -5 56 51 55 4.5 -75 8 02/10/2026 03:00 PM 48694
65890 15.1 4.05 32 56 51 55 4.5 -75 8 02/10/2026 02:45 PM 48693
65889 15.1 3.99 0 57 50 55 5.1 -74 7 02/10/2026 02:30 PM 48692
65888 15.1 4.13 55 56 51 55 4.5 -74 8 02/10/2026 02:15 PM 48691
65887 15.1 4.07 38 57 51 54 4.5 -75 7 02/10/2026 02:00 PM 48690